[[{"header":{"parameterUnit":"m.s-1","parameterCategory":1,"la1":30.2991,"la2":30.254,"lo1":-89.0895,"lo2":-89.0444,"dy":0.0017,"dx":0.0017,"nx":28,"ny":28,"refTime":"2024-04-27T09:00:00:Z","depth":0,"parameterNumber":2,"parameterNumberName":"U-component_of_WINDS"},"data":[0,0,0,0,0,0,0,0,0,0,0,0,0,0,0,0,0,0,0,0,0,0,0,0,0,0,0,0,0,0,0,0,0,0,0,0,0,0,0,0,0,0,0,0,0,0,0,0,0,0,0,0,0,0,0,0,0,0,-7.0131,-7.0134,0,-7.0332,-7.0334,-7.0336,-7.0318,-7.0315,-7.0312,-7.0309,-7.0514,-7.0522,-7.0531,0,0,0,0,0,0,0,0,0,0,0,0,0,-6.9733,-6.974,-7.0131,-7.0134,-7.0136,-7.0331,-7.0334,-7.0337,-7.0319,-7.0315,-7.0311,-7.0308,-7.0512,-7.0521,-7.0531,0,0,0,0,0,0,0,0,0,0,0,0,0,-6.9917,-6.9742,-7.0131,-7.0151,-7.0154,-7.0331,-7.0334,-7.0338,-7.0319,-7.0315,-7.031,-7.0306,-7.0508,-7.052,-7.0533,-7.0703,0,0,-7.0571,-7.0576,0,0,0,0,0,0,0,0,-6.9906,-6.9931,-7.0145,-7.015,-7.0154,-7.0295,-7.0269,-7.046,-7.0321,-7.0257,-7.0309,-7.0304,-7.0445,-7.0463,-7.051,-7.0712,-7.0721,-7.0572,-7.058,-7.0585,-7.0589,0,0,0,0,0,0,0,-6.9894,-6.9923,-7.0211,-7.0148,-7.0154,-7.015,-7.0171,-7.0305,-7.0374,-7.0262,-7.0261,-7.0285,-7.0447,-7.0498,-7.0515,-7.0724,-7.0572,-7.0583,-7.0591,-7.0596,-7.1074,-7.1079,0,0,0,0,0,0,-6.9876,-6.9912,-7.0204,-7.0217,-7.0016,-7.0161,-7.0184,-7.0255,-7.0373,-7.0387,-7.0289,-7.0284,-7.0479,-7.05,-7.0522,-7.0727,-7.0585,-7.0597,-7.0604,-7.1069,-7.1075,-7.1081,0,0,0,0,0,0,-6.9868,-6.9902,-7.0196,-7.0064,-7.0101,-7.0172,-7.0252,-7.0261,-7.0312,-7.0393,-7.0405,-7.0329,-7.0476,-7.0505,-7.0657,-7.0733,-7.0602,-7.0614,-7.1063,-7.1071,-7.1078,-7.1138,0,0,0,0,0,0,-6.9856,-6.9899,-6.9964,-7.0066,-7.0108,-7.0328,-7.0256,-7.0268,-7.0334,-7.0329,-7.0434,-7.0447,-7.0475,-7.0639,-7.067,-7.0748,-7.0624,-7.1056,-7.1066,-7.1075,-7.1129,-7.1147,-7.1162,0,0,0,0,0,-6.9842,-6.9974,-6.9968,-7.0003,-7.0191,-7.0332,-7.0357,-7.0386,-7.034,-7.0406,-7.0458,-7.0443,-7.0721,-7.0655,-7.069,-7.0773,-7.1051,-7.1063,-7.1075,-7.1122,-7.1143,-7.1161,0,0,0,0,0,0,-6.9879,-6.9987,-6.9982,-7.015,-7.0232,-7.0329,-7.0412,-7.0408,-7.0505,-7.0496,-7.0529,-7.0553,-7.0706,-7.0756,-7.068,-7.0943,-7.088,-7.0899,-7.0904,-7.0925,-7.0941,-7.0924,-7.0634,0,0,0,0,0,-6.9907,-7.0012,-7.0102,-7.0241,-7.0283,-7.0341,-7.0404,-7.042,-7.0506,-7.054,-7.0603,-7.0688,-7.0794,-7.0863,-7.0965,-7.1138,-7.1159,-7.1213,-7.1229,-7.1242,-7.1256,-7.135,-7.1373,-7.1119,-7.1119,-7.1119,0,0,-6.9965,-7.0037,-7.0102,-7.0251,-7.0316,-7.0424,-7.037,-7.0487,-7.0567,-7.0558,-7.0705,-7.0755,-7.0852,-7.1015,-7.109,-7.106,-7.1332,-7.1256,-7.1266,-7.1274,-7.1364,-7.1388,-7.1409,-7.1127,-7.1126,-7.1124,0,0,-7.0125,-7.0192,-7.0314,-7.0381,-7.0481,-7.0519,-7.0549,-7.0647,-7.0679,-7.0828,-7.0823,-7.092,-7.1102,-7.1171,-7.1229,-7.1417,-7.1407,-7.145,-7.1533,-7.1623,-7.1643,-7.1661,-7.1725,-7.1748,-7.1466,-7.1466,-7.1466,0,-7.0184,-7.0346,-7.0378,-7.0496,-7.056,-7.0558,-7.0682,-7.0746,-7.0874,-7.0919,-7.0885,-7.1114,-7.1179,-7.1356,-7.1402,-7.1451,-7.1485,-7.1436,-7.1638,-7.1656,-7.1673,-7.1735,-7.1759,-7.147,-7.147,-7.1469,-7.1469,0,-7.0413,-7.0526,-7.0614,-7.0737,-7.0812,-7.0933,-7.0982,-7.1055,-7.1065,-7.1107,-7.1258,-7.1337,-7.1454,-7.1498,-7.151,-7.1678,-7.1657,-7.1631,-7.1567,-7.1701,-7.1759,-7.1784,-7.1476,-7.1475,-7.1474,-7.1473,0,0,-7.0598,-7.0739,-7.077,-7.0825,-7.0936,-7.1024,-7.1145,-7.126,-7.132,-7.141,-7.1511,-7.1666,-7.1642,-7.1709,-7.1729,-7.1809,-7.195,-7.1773,-7.1775,-7.18,-7.2137,-7.2153,-7.218,-7.1945,-7.195,-7.1954,-7.2128,0,-7.0767,-7.0979,-7.1012,-7.1199,-7.1302,-7.1303,-7.1408,-7.1487,-7.153,-7.1625,-7.1673,-7.1781,-7.1743,-7.1783,-7.1863,-7.1915,-7.2017,-7.1904,-7.2037,-7.2042,-7.2009,-7.2211,-7.2229,-7.2389,-7.2151,-7.2155,-7.2158,0,-7.0991,-7.1086,-7.1283,-7.1379,-7.1424,-7.1517,-7.1624,-7.1716,-7.1806,-7.1832,-7.1907,-7.1917,-7.2042,-7.1977,-7.2149,-7.2071,-7.2129,-7.2163,-7.217,-7.218,-7.2105,-7.2223,-7.2441,-7.2464,-7.2195,-7.2192,-7.2189,0,-7.1102,-7.128,-7.142,-7.1468,-7.1585,-7.165,-7.1702,-7.1788,-7.1854,-7.1949,-7.1993,-7.2101,-7.216,-7.2244,-7.2283,-7.2232,-7.2452,-7.239,-7.2475,-7.2474,-7.2517,-7.2513,-7.2743,-7.2561,-7.2561,-7.256,-7.256,0,-7.1284,-7.1404,-7.1471,-7.1557,-7.1691,-7.1728,-7.186,-7.191,-7.1987,-7.2082,-7.2091,-7.2181,-7.2229,-7.2326,-7.2358,-7.2494,-7.2522,-7.2545,-7.2551,-7.2542,-7.2538,-7.2576,-7.2565,-7.2567,-7.2565,-7.2564,-7.2563,0,-7.1429,-7.1479,-7.1632,-7.173,-7.1758,-7.1852,-7.1936,-7.2019,-7.2063,-7.2184,-7.2214,-7.2282,-7.2397,-7.2445,-7.2587,-7.2608,-7.2763,-7.2763,-7.2732,-7.2733,-7.2813,-7.2804,-7.3073,-7.3109,-7.2906,-7.2908,-7.291,0,-7.154,-7.1632,-7.174,-7.1804,-7.1858,-7.1962,-7.203,-7.2071,-7.2142,-7.2252,-7.2322,-7.2437,-7.253,-7.2713,-7.2775,-7.2883,-7.2883,-7.2971,-7.2899,-7.2887,-7.288,-7.2873,-7.2881,-7.2982,-7.2984,-7.2986,-7.2987,0,-7.173,-7.1751,-7.1848,-7.1955,-7.2036,-7.2122,-7.2207,-7.2259,-7.2313,-7.2392,-7.2509,-7.2582,-7.2726,-7.2839,-7.2951,-7.3004,-7.3004,-7.301,-7.3034,-7.3023,-7.3,-7.301,-7.2763,-7.3002,-7.3001,-7.2999,-7.2999,-7.2998,-7.1859,-7.194,-7.2029,-7.2137,-7.2205,-7.2284,-7.2366,-7.242,-7.2518,-7.2638,-7.2657,-7.2781,-7.287,-7.302,-7.3078,-7.3176,-7.3154,-7.3191,-7.3199,-7.3207,-7.321,-7.2988,-7.3197,-7.3197,-7.3197,-7.3197,-7.3196,0,-7.2047,-7.2104,-7.2204,-7.2321,-7.2406,-7.2401,-7.2494,-7.2565,-7.2674,-7.2757,-7.2849,-7.2983,-7.3093,-7.3165,-7.3276,-7.3341,-7.3343,-7.3368,-7.3362,-7.3373,-7.3225,-7.3191,-7.3364,-7.3364,-7.3364,-7.3364,-7.3364,-7.3364,-7.2154,-7.229,-7.2322,-7.2491,-7.2548,-7.267,-7.2723,-7.2795,-7.2861,-7.301,-7.3102,-7.3148,-7.3226,-7.3343,-7.3444,-7.3462,-7.3501,-7.3527,-7.3543,-7.3402,-7.3384,-7.3367,-7.3335,-7.3536,-7.3536,-7.3683,-7.3684,-7.3685]},{"header":{"parameterUnit":"m.s-1","parameterCategory":1,"la1":30.2991,"la2":30.254,"lo1":-89.0895,"lo2":-89.0444,"dy":0.0017,"dx":0.0017,"nx":28,"ny":28,"refTime":"2024-04-27T09:00:00:Z","depth":0,"parameterNumber":3,"parameterNumberName":"V-component_of_WINDS"},"data":[0,0,0,0,0,0,0,0,0,0,0,0,0,0,0,0,0,0,0,0,0,0,0,0,0,0,0,0,0,0,0,0,0,0,0,0,0,0,0,0,0,0,0,0,0,0,0,0,0,0,0,0,0,0,0,0,0,0,4.4677,4.4677,0,4.4684,4.4684,4.4684,4.4628,4.4627,4.4625,4.4624,4.4629,4.463,4.4632,0,0,0,0,0,0,0,0,0,0,0,0,0,4.4616,4.4617,4.4677,4.4677,4.4677,4.4684,4.4684,4.4684,4.4628,4.4627,4.4625,4.4623,4.4628,4.463,4.4632,0,0,0,0,0,0,0,0,0,0,0,0,0,4.4635,4.4618,4.4677,4.4651,4.4648,4.4684,4.4684,4.4684,4.4629,4.4627,4.4624,4.4622,4.4628,4.463,4.4632,4.4693,0,0,4.464,4.4641,0,0,0,0,0,0,0,0,4.4634,4.4637,4.4654,4.4652,4.465,4.4653,4.4664,4.4687,4.4629,4.4636,4.4624,4.4621,4.4639,4.464,4.4646,4.4693,4.4694,4.464,4.4641,4.4642,4.4643,0,0,0,0,0,0,0,4.4632,4.4636,4.468,4.4655,4.4652,4.4638,4.4638,4.4668,4.465,4.4635,4.4631,4.4633,4.4637,4.4644,4.4646,4.4694,4.464,4.4642,4.4643,4.4644,4.4791,4.4793,0,0,0,0,0,0,4.4635,4.4636,4.4679,4.468,4.4636,4.4641,4.4641,4.4654,4.465,4.4647,4.4635,4.463,4.4641,4.4643,4.4646,4.4716,4.4642,4.4644,4.4646,4.4788,4.4791,4.4794,0,0,0,0,0,0,4.4634,4.4639,4.4679,4.4657,4.4661,4.4645,4.466,4.4656,4.4662,4.4649,4.4646,4.4646,4.4639,4.4642,4.4682,4.4715,4.4645,4.4648,4.4785,4.4789,4.4793,4.4857,0,0,0,0,0,0,4.4632,4.4639,4.4662,4.4658,4.4662,4.4715,4.4662,4.4657,4.4667,4.4661,4.4658,4.4656,4.4638,4.4679,4.4684,4.4717,4.4649,4.4782,4.4787,4.4792,4.4852,4.4862,4.4871,0,0,0,0,0,4.463,4.468,4.4664,4.4669,4.4691,4.4717,4.472,4.4699,4.467,4.4693,4.4684,4.4656,4.4711,4.4683,4.4689,4.4723,4.478,4.4786,4.4791,4.4847,4.486,4.4871,0,0,0,0,0,0,4.4688,4.4679,4.4661,4.471,4.4715,4.4708,4.4736,4.4713,4.4726,4.472,4.4693,4.4693,4.4736,4.4734,4.4703,4.4782,4.4741,4.4748,4.4781,4.4793,4.4803,4.4802,4.4651,0,0,0,0,0,4.4707,4.473,4.472,4.4765,4.4768,4.4752,4.4763,4.4746,4.475,4.4752,4.4746,4.4751,4.4769,4.4781,4.4798,4.4852,4.485,4.4879,4.4889,4.4897,4.4902,4.493,4.4942,4.4812,4.4812,4.4812,0,0,4.4745,4.4743,4.4758,4.4776,4.4778,4.4802,4.4754,4.4781,4.4798,4.4756,4.4792,4.4789,4.4792,4.4839,4.4859,4.4838,4.4938,4.4904,4.4911,4.4912,4.4937,4.4949,4.496,4.4816,4.4816,4.4815,0,0,4.4826,4.4828,4.4864,4.4868,4.4872,4.4861,4.487,4.4867,4.4863,4.4899,4.4868,4.4888,4.492,4.4924,4.493,4.5015,4.4988,4.5021,4.5071,4.5099,4.5109,4.5118,4.5147,4.5158,4.5027,4.5027,4.5027,0,4.4873,4.4908,4.4886,4.4916,4.4924,4.4888,4.4925,4.4929,4.4938,4.4944,4.4921,4.4961,4.4961,4.5008,4.5029,4.5035,4.5044,4.502,4.511,4.5118,4.5126,4.5153,4.5165,4.5031,4.5031,4.503,4.503,0,4.4964,4.4989,4.5019,4.5029,4.5041,4.5074,4.5057,4.5072,4.5056,4.5047,4.5085,4.5084,4.5099,4.5109,4.5093,4.5154,4.5141,4.5115,4.5072,4.5143,4.5168,4.5178,4.5036,4.5035,4.5034,4.5033,0,0,4.5079,4.5079,4.5089,4.5094,4.5096,4.5115,4.5147,4.5162,4.5175,4.5183,4.5208,4.5237,4.5213,4.522,4.5204,4.5229,4.5294,4.5199,4.5198,4.5215,4.536,4.5379,4.5391,4.5278,4.528,4.5282,4.536,0,4.5157,4.5212,4.5194,4.5249,4.5271,4.5238,4.5266,4.527,4.5264,4.5282,4.5274,4.5295,4.5262,4.5266,4.5289,4.5282,4.5323,4.5276,4.53,4.5301,4.5298,4.5404,4.5424,4.5497,4.5369,4.5371,4.5372,0,4.5255,4.5268,4.5325,4.5324,4.5332,4.5358,4.537,4.5389,4.5393,4.5387,4.5395,4.5374,4.5405,4.5365,4.5407,4.5375,4.5385,4.5383,4.5385,4.5384,4.5339,4.5405,4.552,4.553,4.5388,4.5386,4.5385,0,4.5331,4.5363,4.5401,4.5406,4.5406,4.5424,4.5425,4.5427,4.5438,4.545,4.5456,4.5471,4.5479,4.5491,4.5475,4.5447,4.5518,4.5477,4.5513,4.5513,4.5527,4.5526,4.5643,4.5537,4.5537,4.5537,4.5536,0,4.5419,4.5455,4.5435,4.5458,4.5497,4.5477,4.5516,4.5514,4.5516,4.5538,4.5511,4.5532,4.551,4.5529,4.5517,4.5553,4.5557,4.5552,4.5548,4.5553,4.5553,4.5557,4.555,4.5539,4.5539,4.5538,4.5538,0,4.5509,4.5498,4.5537,4.5535,4.5535,4.5564,4.5561,4.5582,4.5575,4.5603,4.5608,4.5597,4.5617,4.5603,4.5624,4.5616,4.5662,4.5652,4.5661,4.5657,4.5693,4.5689,4.5815,4.5829,4.5716,4.5717,4.5718,0,4.5565,4.5592,4.5593,4.5606,4.5608,4.563,4.5641,4.5623,4.5635,4.5643,4.5663,4.5682,4.5696,4.5731,4.5724,4.5739,4.5728,4.5771,4.573,4.5735,4.5727,4.5724,4.5726,4.5779,4.578,4.5781,4.5782,0,4.5664,4.5657,4.5674,4.569,4.5704,4.5715,4.5724,4.5736,4.5718,4.5734,4.5755,4.5766,4.5788,4.5806,4.582,4.582,4.5798,4.5796,4.5804,4.5809,4.5812,4.5809,4.5681,4.5792,4.5791,4.579,4.579,4.5789,4.5737,4.576,4.5764,4.5784,4.5789,4.5798,4.5818,4.5814,4.5832,4.5848,4.5837,4.5862,4.5866,4.5882,4.5885,4.5904,4.5887,4.59,4.5903,4.5906,4.591,4.5811,4.5907,4.5907,4.5907,4.5906,4.5906,0,4.5834,4.5835,4.5854,4.5868,4.5884,4.5863,4.5872,4.5887,4.5909,4.5916,4.593,4.5955,4.5973,4.5969,4.5985,4.6001,4.5991,4.6006,4.6003,4.6003,4.5926,4.5916,4.6013,4.6013,4.6013,4.6013,4.6013,4.6013,4.5886,4.5922,4.5916,4.5955,4.5956,4.5981,4.5988,4.5996,4.6001,4.603,4.6045,4.6042,4.6044,4.606,4.6076,4.6074,4.608,4.6099,4.6093,4.602,4.6009,4.5999,4.5989,4.6101,4.6101,4.6168,4.6169,4.617]}]]